Location: Bonham
(33.5773°N, 96.1783°W)
Time: 02:18:55
(UTC+00:00)

CZ-4B R/B - Pass Details

Date: 14 August 2025
Orbit: 699 x 798 km, 98.9° (Epoch: 18 April)

Event Time Altitude Azimuth Distance (km) Brightness Sun altitude
Exits shadow 02:11:21 16° 102° (ESE) 1,858 4.9 -12.2°
Drops below altitude 10° 02:17:11 10° 20° (NNE) 2,209 6.0 -13.2°
Enters shadow 03:20:28 -55° 170° (S) 11,370 9.4 -24.3°
Maximum altitude 03:51:56 34° 261° (W) 1,199 4.7 -29.2°
